sat.trackr.live / text

‹ back to catalog

STARLINK-30852

NORAD 58373 · 2023-177Y

PAYLOAD ACTIVE UNKNOWN

§ Identity

Operator
Country
US
Launch date
2023-11-18
Launch site
AFETR
Launch vehicle
Mass (kg)
RCS (m²)

Purposes: comms

External: N2YO · Heavens-Above · Gunter

§ Orbital elements

Epoch: 2026-09-20T21:27:51.784704Z

Period
94.27 min
Inclination
43.0033°
Eccentricity
0.0001016
Mean motion
15.27577066 rev/d
Perigee alt
482.4 km
Apogee alt
483.8 km
Semi-major
6,861.2 km
B*
-6.2929e-6
RAAN
327.9712°
Arg perigee
273.7452°
Mean anomaly
86.3283°
Rev number
15,808

§ Raw data

STARLINK-308521 58373U 23177Y   26263.89434936 -.00000435  00000+0 -62929-5 0  99972 58373  43.0033 327.9712 0001016 273.7452  86.3283 15.27577066158088

JSON: /api/v1/satellites/58373 · /tle

For live sub-satellite position, see the globe view (requires WebGL).

§ Visibility from observer

Set your observer location to see the next 7 days of passes ≥ 10°. The values pass through the URL so the page stays shareable.

No JS? Fill the form by hand. The geolocation button needs JavaScript.